This is the latest recevied weather packets stored in our database for station/object WL7CLI. If no packets are shown the sender has not sent any weather packets the latest 10 day(s).
| Time | Temp. | Humidity | Pressure | Rain* | Wind** | Luminosity | Snow |
|---|---|---|---|---|---|---|---|
| 1777523304 | 7.22° C | 66% | 1018.2 hPa | 0 mm | - | - | - |
| 1777523097 | 7.22° C | 68% | 1018.7 hPa | 0 mm | - | - | - |
| 1777522572 | 7.22° C | 67% | 1018.7 hPa | 0 mm | - | - | - |
| 1777521897 | 7.78° C | 65% | 1018.7 hPa | 0 mm | - | - | - |
| 1777521504 | 7.78° C | 66% | 1018.3 hPa | 0 mm | - | - | - |
| 1777521372 | 7.78° C | 66% | 1018.7 hPa | 0 mm | - | - | - |
| 1777520696 | 7.78° C | 65% | 1018.8 hPa | 0 mm | - | - | - |
| 1777520173 | 7.78° C | 64% | 1018.8 hPa | 0 mm | - | - | - |
| 1777519704 | 8.33° C | 62% | 1018.3 hPa | 0 mm | - | - | - |
| 1777519496 | 8.33° C | 62% | 1018.8 hPa | 0 mm | - | - | - |
| 1777518971 | 8.33° C | 63% | 1018.7 hPa | 0 mm | - | - | - |
| 1777518298 | 8.89° C | 60% | 1018.6 hPa | 0 mm | - | - | - |
| 1777517904 | 8.89° C | 59% | 1018.3 hPa | 0 mm | - | - | - |
| 1777517773 | 8.89° C | 59% | 1018.7 hPa | 0 mm | - | - | - |
| 1777517340 | 9.44° C | 55% | 1018.5 hPa | 0 mm | - | - | - |
| 1777517097 | 9.44° C | 55% | 1018.5 hPa | 0 mm | - | - | - |
| 1777516572 | 10° C | 54% | 1018.3 hPa | 0 mm | - | - | - |
| 1777516143 | 9.44° C | 55% | 1018.1 hPa | 0 mm | - | - | - |
| 1777516104 | 10° C | 53% | 1017.6 hPa | 0 mm | - | - | - |
| 1777515897 | 9.44° C | 55% | 1018.1 hPa | 0 mm | - | - | - |
| 1777515373 | 9.44° C | 56% | 1018.2 hPa | 0 mm | - | - | - |
| 1777514697 | 10° C | 53% | 1018.2 hPa | 0 mm | - | - | - |
| 1777514304 | 10° C | 52% | 1017.7 hPa | 0 mm | - | - | - |
| 1777514173 | 10° C | 52% | 1018.2 hPa | 0 mm | - | - | - |
| 1777513497 | 10.56° C | 50% | 1018.1 hPa | 0 mm | - | - | - |
* Rain latest hour (hover to see other rain measurements)
** Current wind speed in m/s (hover to see current wind gust speed)